Time,TemperatureF,DewpointF,PressureIn,WindDirection,WindDirectionDegrees,WindSpeedMPH,WindSpeedGustMPH,Humidity,HourlyPrecipIn,Conditions,Clouds,dailyrainin,SoftwareType,DateUTC
2013-06-21 11:36:00,92.3,71.6,0.00,South,183,3.6,3.6,51,0.16,,---,0.00,VWS V14.01,2013-06-21 15:36:00,
2013-06-21 11:37:00,92.3,71.6,0.00,SSE,160,3.1,3.6,51,0.00,,---,0.00,VWS V14.01,2013-06-21 15:37:00,
2013-06-21 11:38:00,92.3,71.6,0.00,SSE,156,5.4,6.3,51,0.00,,---,0.00,VWS V14.01,2013-06-21 15:38:00,
2013-06-21 11:41:00,92.3,71.6,0.00,South,187,3.1,3.1,51,0.00,,---,0.00,VWS V14.01,2013-06-21 15:41:00,
2013-06-21 11:42:00,92.3,71.6,0.00,South,187,0.0,3.1,51,0.00,,---,0.00,VWS V14.01,2013-06-21 15:42:00,
2013-06-21 11:43:00,92.3,71.6,0.00,South,187,3.1,4.0,51,0.00,,---,0.00,VWS V14.01,2013-06-21 15:43:00,
2013-06-21 11:46:00,92.3,71.6,0.00,South,174,5.8,5.8,51,0.00,,---,0.00,VWS V14.01,2013-06-21 15:46:00,
2013-06-21 11:47:00,92.3,71.0,0.00,SSE,153,8.3,8.3,50,0.00,,---,0.00,VWS V14.01,2013-06-21 15:47:00,
2013-06-21 11:48:00,92.3,71.0,0.00,SSE,165,6.3,6.3,50,0.00,,---,0.00,VWS V14.01,2013-06-21 15:48:00,
2013-06-21 11:51:00,92.3,71.0,0.00,South,191,4.0,4.0,50,0.00,,---,0.00,VWS V14.01,2013-06-21 15:51:00,
2013-06-21 11:52:00,92.5,71.2,0.00,SSW,204,3.1,4.9,50,0.00,,---,0.00,VWS V14.01,2013-06-21 15:52:00,
2013-06-21 11:53:00,92.5,70.6,0.00,SSW,203,3.6,4.9,49,0.00,,---,0.00,VWS V14.01,2013-06-21 15:53:00,
2013-06-21 11:56:00,92.7,70.7,0.00,SSW,212,0.0,0.0,49,0.00,,---,0.00,VWS V14.01,2013-06-21 15:56:00,
2013-06-21 11:57:00,92.7,70.7,0.00,SSE,158,2.2,4.0,49,0.00,,---,0.00,VWS V14.01,2013-06-21 15:57:00,
2013-06-21 11:58:00,92.7,70.7,0.00,SSE,158,2.2,4.0,49,0.00,,---,0.00,VWS V14.01,2013-06-21 15:58:00,
2013-06-21 12:01:00,92.7,70.7,0.00,SSE,157,5.8,5.8,49,0.00,,---,0.00,VWS V14.01,2013-06-21 16:01:00,
2013-06-21 12:03:00,92.7,70.7,0.00,SSE,157,5.8,5.8,49,0.00,,---,0.00,VWS V14.01,2013-06-21 16:03:00,
2013-06-21 12:08:00,92.7,70.1,0.00,SSE,157,5.8,5.8,48,0.00,,---,0.00,VWS V14.01,2013-06-21 16:08:00,
2013-06-21 12:09:00,92.7,70.1,0.00,SSE,157,5.8,5.8,48,0.00,,---,0.00,VWS V14.01,2013-06-21 16:09:00,
2013-06-21 12:13:00,92.8,70.3,0.00,SSE,157,5.8,5.8,48,0.00,,---,0.00,VWS V14.01,2013-06-21 16:13:00,
2013-06-21 12:14:00,92.8,70.3,0.00,SSE,157,5.8,5.8,48,0.00,,---,0.00,VWS V14.01,2013-06-21 16:14:00,
2013-06-21 12:18:00,92.8,70.3,0.00,SSE,165,2.7,2.7,48,0.00,,---,0.00,VWS V14.01,2013-06-21 16:18:00,
2013-06-21 12:19:00,92.8,70.3,0.00,SSE,158,2.7,2.7,48,0.00,,---,0.00,VWS V14.01,2013-06-21 16:19:00,
2013-06-21 12:23:00,93.2,69.4,0.00,SSE,158,2.7,2.7,46,0.00,,---,0.00,VWS V14.01,2013-06-21 16:23:00,
2013-06-21 12:24:00,93.2,69.4,0.00,SSE,158,2.7,2.7,46,0.00,,---,0.00,VWS V14.01,2013-06-21 16:24:00,
2013-06-21 12:28:00,93.2,69.4,0.00,South,172,2.7,3.1,46,0.00,,---,0.00,VWS V14.01,2013-06-21 16:28:00,
2013-06-21 12:29:00,93.2,69.4,0.00,South,172,2.7,2.7,46,0.00,,---,0.00,VWS V14.01,2013-06-21 16:29:00,
2013-06-21 12:30:00,93.2,69.4,0.00,South,172,2.7,2.7,46,0.00,,---,0.00,VWS V14.01,2013-06-21 16:30:00,
2013-06-21 12:33:00,93.7,71.1,0.00,South,172,2.7,2.7,48,0.00,,---,0.00,VWS V14.01,2013-06-21 16:33:00,
2013-06-21 12:34:00,93.7,71.1,0.00,South,172,2.7,2.7,48,0.00,,---,0.00,VWS V14.01,2013-06-21 16:34:00,
2013-06-21 12:35:00,93.7,71.1,0.00,South,172,2.7,2.7,48,0.00,,---,0.00,VWS V14.01,2013-06-21 16:35:00,
2013-06-21 12:39:00,93.6,70.3,0.00,South,180,3.6,3.6,47,0.00,,---,0.00,VWS V14.01,2013-06-21 16:39:00,
2013-06-21 12:40:00,93.6,70.3,0.00,South,180,3.6,3.6,47,0.00,,---,0.00,VWS V14.01,2013-06-21 16:40:00,
2013-06-21 12:42:00,93.6,70.3,0.00,South,180,3.6,3.6,47,0.00,,---,0.00,VWS V14.01,2013-06-21 16:42:00,
2013-06-21 12:44:00,93.6,70.3,0.00,South,180,3.6,3.6,47,0.00,,---,0.00,VWS V14.01,2013-06-21 16:44:00,
2013-06-21 12:45:00,93.6,70.3,0.00,South,180,3.6,3.6,47,0.00,,---,0.00,VWS V14.01,2013-06-21 16:45:00,
2013-06-21 12:48:00,93.4,71.4,0.00,SSE,147,3.6,3.6,49,0.00,,---,0.00,VWS V14.01,2013-06-21 16:48:00,
2013-06-21 12:49:00,93.6,71.5,0.00,SSE,147,3.6,3.6,49,0.00,,---,0.00,VWS V14.01,2013-06-21 16:49:00,
2013-06-21 12:50:00,93.6,71.5,0.00,SSE,147,3.6,3.6,49,0.00,,---,0.00,VWS V14.01,2013-06-21 16:50:00,
2013-06-21 12:53:00,93.6,71.5,0.00,South,175,4.0,4.0,49,0.00,,---,0.00,VWS V14.01,2013-06-21 16:53:00,
2013-06-21 12:54:00,93.6,71.5,0.00,South,175,4.0,4.0,49,0.00,,---,0.00,VWS V14.01,2013-06-21 16:54:00,
2013-06-21 12:55:00,93.6,71.5,0.00,SSW,205,3.1,3.1,49,0.00,,---,0.00,VWS V14.01,2013-06-21 16:55:00,
2013-06-21 12:58:00,94.3,71.0,0.00,NNW,345,3.1,3.1,47,0.00,,---,0.00,VWS V14.01,2013-06-21 16:58:00,
2013-06-21 13:00:00,94.3,71.0,0.00,NNW,345,3.1,3.1,47,0.00,,---,0.00,VWS V14.01,2013-06-21 17:00:00,
2013-06-21 13:02:00,94.1,70.8,0.00,SSE,154,2.2,2.2,47,0.00,,---,0.00,VWS V14.01,2013-06-21 17:02:00,
2013-06-21 13:04:00,94.1,70.8,0.00,SSE,154,2.2,2.2,47,0.00,,---,0.00,VWS V14.01,2013-06-21 17:04:00,
2013-06-21 13:05:00,94.1,70.8,0.00,SSE,154,2.2,2.2,47,0.00,,---,0.00,VWS V14.01,2013-06-21 17:05:00,
2013-06-21 13:09:00,94.1,71.4,0.00,SSE,154,2.2,2.2,48,0.00,,---,0.00,VWS V14.01,2013-06-21 17:09:00,
2013-06-21 13:10:00,94.1,71.4,0.00,SSE,154,2.2,2.2,48,0.00,,---,0.00,VWS V14.01,2013-06-21 17:10:00,
2013-06-21 13:11:00,94.1,71.4,0.00,SSE,154,2.2,2.2,48,0.00,,---,0.00,VWS V14.01,2013-06-21 17:11:00,
2013-06-21 13:12:00,94.1,71.4,0.00,SSE,161,4.9,4.9,48,0.00,,---,0.00,VWS V14.01,2013-06-21 17:12:00,
2013-06-21 13:13:00,94.1,71.4,0.00,South,175,4.0,4.9,48,0.00,,---,0.00,VWS V14.01,2013-06-21 17:13:00,
2013-06-21 13:16:00,94.8,70.8,0.00,South,175,4.0,4.0,46,0.00,,---,0.00,VWS V14.01,2013-06-21 17:16:00,
2013-06-21 13:17:00,94.6,70.0,0.00,South,175,4.0,4.0,45,0.00,,---,0.00,VWS V14.01,2013-06-21 17:17:00,
2013-06-21 13:18:00,94.6,70.0,0.00,South,175,4.0,4.0,45,0.00,,---,0.00,VWS V14.01,2013-06-21 17:18:00,
2013-06-21 13:21:00,94.6,70.0,0.00,South,175,4.0,4.0,45,0.00,,---,0.00,VWS V14.01,2013-06-21 17:21:00,
2013-06-21 13:22:00,94.6,70.0,0.00,South,175,4.0,4.0,45,0.00,,---,0.00,VWS V14.01,2013-06-21 17:22:00,
2013-06-21 13:23:00,94.6,70.0,0.00,South,175,4.0,4.0,45,0.00,,---,0.00,VWS V14.01,2013-06-21 17:23:00,
2013-06-21 13:26:00,94.6,70.0,0.00,South,175,4.0,4.0,45,0.00,,---,0.00,VWS V14.01,2013-06-21 17:26:00,
2013-06-21 13:27:00,94.6,70.0,0.00,SSE,161,3.6,4.0,45,0.00,,---,0.00,VWS V14.01,2013-06-21 17:27:00,
2013-06-21 13:28:00,94.8,70.2,0.00,SSE,161,3.6,3.6,45,0.00,,---,0.00,VWS V14.01,2013-06-21 17:28:00,
2013-06-21 13:32:00,95.0,70.3,0.00,SW,218,3.6,3.6,45,0.00,,---,0.00,VWS V14.01,2013-06-21 17:32:00,
2013-06-21 13:34:00,95.0,70.3,0.00,SSE,157,0.0,0.0,45,0.00,,---,0.00,VWS V14.01,2013-06-21 17:34:00,
2013-06-21 13:35:00,95.0,70.3,0.00,SSE,157,0.0,0.0,45,0.00,,---,0.00,VWS V14.01,2013-06-21 17:35:00,
2013-06-21 13:38:00,95.0,70.3,0.00,SSE,168,7.6,7.6,45,0.00,,---,0.00,VWS V14.01,2013-06-21 17:38:00,
2013-06-21 13:39:00,95.0,70.3,0.00,SSE,168,7.6,7.6,45,0.00,,---,0.00,VWS V14.01,2013-06-21 17:39:00,
2013-06-21 13:40:00,95.0,70.3,0.00,SSE,168,7.6,7.6,45,0.00,,---,0.00,VWS V14.01,2013-06-21 17:40:00,
2013-06-21 13:43:00,95.0,69.0,0.00,SSE,168,7.6,7.6,43,0.00,,---,0.00,VWS V14.01,2013-06-21 17:43:00,
2013-06-21 13:44:00,95.4,70.0,0.00,SSE,168,7.6,7.6,44,0.00,,---,0.00,VWS V14.01,2013-06-21 17:44:00,
2013-06-21 13:46:00,95.4,70.0,0.00,SSE,168,7.6,7.6,44,0.00,,---,0.00,VWS V14.01,2013-06-21 17:46:00,
2013-06-21 13:51:00,95.4,69.3,0.00,SSE,156,3.1,4.9,43,0.00,,---,0.00,VWS V14.01,2013-06-21 17:51:00,
2013-06-21 13:52:00,95.4,69.3,0.00,SSE,156,3.1,3.1,43,0.00,,---,0.00,VWS V14.01,2013-06-21 17:52:00,
2013-06-21 13:56:00,95.5,68.1,0.00,SSE,165,3.6,3.6,41,0.00,,---,0.00,VWS V14.01,2013-06-21 17:56:00,
2013-06-21 13:57:00,95.5,68.1,0.00,SSE,165,3.6,3.6,41,0.00,,---,0.00,VWS V14.01,2013-06-21 17:57:00,
2013-06-21 14:01:00,95.7,69.0,0.00,SSE,166,3.6,3.6,42,0.00,,---,0.00,VWS V14.01,2013-06-21 18:01:00,
2013-06-21 14:02:00,95.5,68.8,0.00,SSE,166,3.6,3.6,42,0.00,,---,0.00,VWS V14.01,2013-06-21 18:02:00,
2013-06-21 14:03:00,95.5,68.8,0.00,SSE,166,3.6,3.6,42,0.00,,---,0.00,VWS V14.01,2013-06-21 18:03:00,
2013-06-21 14:06:00,95.5,68.8,0.00,SSE,166,3.6,3.6,42,0.00,,---,0.00,VWS V14.01,2013-06-21 18:06:00,
2013-06-21 14:07:00,95.7,69.0,0.00,South,170,2.2,4.0,42,0.00,,---,0.00,VWS V14.01,2013-06-21 18:07:00,
2013-06-21 14:08:00,95.7,69.0,0.00,South,170,2.2,4.0,42,0.00,,---,0.00,VWS V14.01,2013-06-21 18:08:00,
2013-06-21 14:11:00,95.9,69.1,0.00,South,179,4.0,4.0,42,0.00,,---,0.00,VWS V14.01,2013-06-21 18:11:00,
2013-06-21 14:13:00,95.9,69.1,0.00,South,179,4.0,4.0,42,0.00,,---,0.00,VWS V14.01,2013-06-21 18:13:00,
2013-06-21 14:14:00,95.9,69.1,0.00,South,179,4.0,4.0,42,0.00,,---,0.00,VWS V14.01,2013-06-21 18:14:00,
2013-06-21 14:17:00,95.9,69.1,0.00,South,186,3.1,3.1,42,0.00,,---,0.00,VWS V14.01,2013-06-21 18:17:00,
2013-06-21 14:18:00,95.9,69.1,0.00,SSE,157,4.0,4.0,42,0.00,,---,0.00,VWS V14.01,2013-06-21 18:18:00,
2013-06-21 14:19:00,95.7,68.3,0.00,SSW,194,3.1,3.1,41,0.00,,---,0.00,VWS V14.01,2013-06-21 18:19:00,
2013-06-21 14:22:00,95.7,69.0,0.00,SSW,194,3.1,3.1,42,0.00,,---,0.00,VWS V14.01,2013-06-21 18:22:00,
2013-06-21 14:23:00,95.7,69.0,0.00,SSW,194,3.1,3.1,42,0.00,,---,0.00,VWS V14.01,2013-06-21 18:23:00,
2013-06-21 14:24:00,95.7,69.0,0.00,SSW,194,3.1,3.1,42,0.00,,---,0.00,VWS V14.01,2013-06-21 18:24:00,
2013-06-21 14:28:00,95.4,67.9,0.00,SSE,167,3.6,5.4,41,0.00,,---,0.00,VWS V14.01,2013-06-21 18:28:00,
2013-06-21 14:29:00,95.4,69.3,0.00,SSE,164,3.6,3.6,43,0.00,,---,0.00,VWS V14.01,2013-06-21 18:29:00,
2013-06-21 14:33:00,95.2,68.5,0.00,SSE,164,3.6,3.6,42,0.00,,---,0.00,VWS V14.01,2013-06-21 18:33:00,
2013-06-21 14:34:00,95.2,68.5,0.00,SSE,164,3.6,3.6,42,0.00,,---,0.00,VWS V14.01,2013-06-21 18:34:00,
2013-06-21 14:38:00,95.2,68.5,0.00,SSE,160,7.6,7.6,42,0.00,,---,0.00,VWS V14.01,2013-06-21 18:38:00,
2013-06-21 14:39:00,95.2,68.5,0.00,SSE,160,7.6,7.6,42,0.00,,---,0.00,VWS V14.01,2013-06-21 18:39:00,
2013-06-21 14:44:00,95.2,68.5,0.00,SSE,150,4.9,4.9,42,0.00,,---,0.00,VWS V14.01,2013-06-21 18:44:00,
2013-06-21 14:45:00,95.2,68.5,0.00,SSE,155,3.1,3.1,42,0.00,,---,0.00,VWS V14.01,2013-06-21 18:45:00,
2013-06-21 14:46:00,95.2,68.5,0.00,SSE,155,3.1,3.1,42,0.00,,---,0.00,VWS V14.01,2013-06-21 18:46:00,
2013-06-21 14:50:00,95.5,70.2,0.00,SSE,158,6.3,6.3,44,0.00,,---,0.00,VWS V14.01,2013-06-21 18:50:00,
2013-06-21 14:51:00,95.5,70.2,0.00,South,180,5.4,6.3,44,0.00,,---,0.00,VWS V14.01,2013-06-21 18:51:00,
2013-06-21 14:55:00,95.7,70.3,0.00,SE,143,2.2,2.2,44,0.00,,---,0.00,VWS V14.01,2013-06-21 18:55:00,
2013-06-21 14:56:00,95.7,70.3,0.00,SE,143,2.2,2.2,44,0.00,,---,0.00,VWS V14.01,2013-06-21 18:56:00,
2013-06-21 15:00:00,96.4,71.0,0.00,SSE,167,8.1,8.1,44,0.00,,---,0.00,VWS V14.01,2013-06-21 19:00:00,
2013-06-21 15:01:00,96.4,71.0,0.00,SSE,167,8.1,8.1,44,0.00,,---,0.00,VWS V14.01,2013-06-21 19:01:00,
2013-06-21 15:02:00,96.4,71.0,0.00,SSW,197,0.0,2.7,44,0.00,,---,0.00,VWS V14.01,2013-06-21 19:02:00,
2013-06-21 15:06:00,96.4,71.0,0.00,SSW,197,0.0,0.0,44,0.00,,---,0.00,VWS V14.01,2013-06-21 19:06:00,
2013-06-21 15:07:00,96.4,71.0,0.00,South,173,6.3,6.3,44,0.00,,---,0.00,VWS V14.01,2013-06-21 19:07:00,
2013-06-21 15:11:00,96.4,71.0,0.00,SSE,152,5.4,6.3,44,0.00,,---,0.00,VWS V14.01,2013-06-21 19:11:00,
2013-06-21 15:12:00,96.3,70.1,0.00,SSE,152,5.4,6.3,43,0.00,,---,0.00,VWS V14.01,2013-06-21 19:12:00,
2013-06-21 15:16:00,96.3,70.8,0.00,SSE,162,3.1,3.1,44,0.00,,---,0.00,VWS V14.01,2013-06-21 19:16:00,
2013-06-21 15:17:00,96.3,70.8,0.00,SSE,162,3.1,3.1,44,0.00,,---,0.00,VWS V14.01,2013-06-21 19:17:00,
2013-06-21 15:18:00,96.4,71.0,0.00,SSE,162,3.1,3.1,44,0.00,,---,0.00,VWS V14.01,2013-06-21 19:18:00,
2013-06-21 15:20:00,96.1,70.0,0.00,South,171,4.0,4.0,43,0.00,,---,0.00,VWS V14.01,2013-06-21 19:20:00,
2013-06-21 15:22:00,96.1,70.0,0.00,South,171,4.0,4.0,43,0.00,,---,0.00,VWS V14.01,2013-06-21 19:22:00,
2013-06-21 15:23:00,96.1,70.0,0.00,South,171,4.0,4.0,43,0.00,,---,0.00,VWS V14.01,2013-06-21 19:23:00,
2013-06-21 15:25:00,96.3,70.1,0.00,South,171,4.0,4.0,43,0.00,,---,0.00,VWS V14.01,2013-06-21 19:25:00,
2013-06-21 15:27:00,96.3,70.1,0.00,SSE,166,3.1,3.1,43,0.00,,---,0.00,VWS V14.01,2013-06-21 19:27:00,
2013-06-21 15:28:00,96.3,70.1,0.00,SSE,166,3.1,3.1,43,0.00,,---,0.00,VWS V14.01,2013-06-21 19:28:00,
2013-06-21 15:31:00,96.3,70.1,0.00,SSE,168,2.7,2.7,43,0.00,,---,0.00,VWS V14.01,2013-06-21 19:31:00,
2013-06-21 15:32:00,96.3,70.1,0.00,SSE,168,2.7,2.7,43,0.00,,---,0.00,VWS V14.01,2013-06-21 19:32:00,
2013-06-21 15:33:00,96.3,70.1,0.00,SSE,168,2.7,2.7,43,0.00,,---,0.00,VWS V14.01,2013-06-21 19:33:00,
2013-06-21 15:36:00,96.3,70.1,0.00,SSE,150,2.7,2.7,43,0.00,,---,0.00,VWS V14.01,2013-06-21 19:36:00,
2013-06-21 15:38:00,96.1,70.0,0.00,SSE,150,2.7,2.7,43,0.00,,---,0.00,VWS V14.01,2013-06-21 19:38:00,
2013-06-21 15:42:00,96.1,70.0,0.00,SSW,196,5.4,5.4,43,0.00,,---,0.00,VWS V14.01,2013-06-21 19:42:00,
2013-06-21 15:43:00,96.1,70.0,0.00,SSW,196,5.4,5.4,43,0.00,,---,0.00,VWS V14.01,2013-06-21 19:43:00,
2013-06-21 15:44:00,96.1,70.0,0.00,SSW,196,5.4,5.4,43,0.00,,---,0.00,VWS V14.01,2013-06-21 19:44:00,
2013-06-21 15:46:00,96.4,71.0,0.00,SSE,155,5.4,7.2,44,0.00,,---,0.00,VWS V14.01,2013-06-21 19:46:00,
2013-06-21 15:48:00,96.4,71.0,0.00,SSE,155,5.4,5.4,44,0.00,,---,0.00,VWS V14.01,2013-06-21 19:48:00,
2013-06-21 15:49:00,96.4,71.0,0.00,SSE,155,5.4,5.4,44,0.00,,---,0.00,VWS V14.01,2013-06-21 19:49:00,
2013-06-21 15:51:00,96.4,71.0,0.00,SSE,155,5.4,5.4,44,0.00,,---,0.00,VWS V14.01,2013-06-21 19:51:00,
2013-06-21 15:53:00,96.4,71.0,0.00,SSE,155,5.4,5.4,44,0.00,,---,0.00,VWS V14.01,2013-06-21 19:53:00,
2013-06-21 15:54:00,96.4,71.0,0.00,SSE,155,5.4,5.4,44,0.00,,---,0.00,VWS V14.01,2013-06-21 19:54:00,
2013-06-21 15:56:00,96.4,71.0,0.00,SSE,165,6.3,6.3,44,0.00,,---,0.00,VWS V14.01,2013-06-21 19:56:00,
2013-06-21 15:58:00,96.4,71.0,0.00,SSE,155,3.6,3.6,44,0.00,,---,0.00,VWS V14.01,2013-06-21 19:58:00,
2013-06-21 15:59:00,96.4,71.0,0.00,SSE,155,3.6,3.6,44,0.00,,---,0.00,VWS V14.01,2013-06-21 19:59:00,
2013-06-21 16:02:00,96.3,70.8,0.00,SSE,155,3.6,3.6,44,0.00,,---,0.00,VWS V14.01,2013-06-21 20:02:00,
2013-06-21 16:04:00,96.4,71.6,0.00,SSE,155,3.6,3.6,45,0.00,,---,0.00,VWS V14.01,2013-06-21 20:04:00,
2013-06-21 16:07:00,96.4,71.6,0.00,SSE,149,3.6,3.6,45,0.00,,---,0.00,VWS V14.01,2013-06-21 20:07:00,
2013-06-21 16:08:00,96.4,71.6,0.00,SSE,149,3.6,3.6,45,0.00,,---,0.00,VWS V14.01,2013-06-21 20:08:00,
2013-06-21 16:09:00,96.4,72.3,0.00,SSE,149,3.6,3.6,46,0.00,,---,0.00,VWS V14.01,2013-06-21 20:09:00,
2013-06-21 16:11:00,96.3,71.5,0.00,SSE,149,3.6,3.6,45,0.00,,---,0.00,VWS V14.01,2013-06-21 20:11:00,
2013-06-21 16:12:00,96.3,71.5,0.00,SSE,149,3.6,3.6,45,0.00,,---,0.00,VWS V14.01,2013-06-21 20:12:00,
2013-06-21 16:14:00,96.3,71.5,0.00,SSE,149,3.6,3.6,45,0.00,,---,0.00,VWS V14.01,2013-06-21 20:14:00,
2013-06-21 16:15:00,96.3,71.5,0.00,SSE,164,3.6,3.6,45,0.00,,---,0.00,VWS V14.01,2013-06-21 20:15:00,
2013-06-21 16:16:00,96.3,71.5,0.00,SSE,164,3.6,3.6,45,0.00,,---,0.00,VWS V14.01,2013-06-21 20:16:00,
2013-06-21 16:17:00,96.4,71.0,0.00,SSE,164,3.6,3.6,44,0.00,,---,0.00,VWS V14.01,2013-06-21 20:17:00,
2013-06-21 16:19:00,96.6,71.8,0.00,SSE,164,3.6,3.6,45,0.00,,---,0.00,VWS V14.01,2013-06-21 20:19:00,
2013-06-21 16:20:00,96.6,71.8,0.00,SSE,164,3.6,3.6,45,0.00,,---,0.00,VWS V14.01,2013-06-21 20:20:00,
2013-06-21 16:21:00,96.6,71.8,0.00,SSE,164,3.6,3.6,45,0.00,,---,0.00,VWS V14.01,2013-06-21 20:21:00,
2013-06-21 16:22:00,96.6,71.8,0.00,SSE,164,3.6,3.6,45,0.00,,---,0.00,VWS V14.01,2013-06-21 20:22:00,
2013-06-21 16:24:00,96.6,71.8,0.00,SSE,164,3.6,3.6,45,0.00,,---,0.00,VWS V14.01,2013-06-21 20:24:00,
2013-06-21 16:25:00,96.6,71.8,0.00,SSE,164,3.6,3.6,45,0.00,,---,0.00,VWS V14.01,2013-06-21 20:25:00,
2013-06-21 16:26:00,96.6,71.8,0.00,SSE,164,3.6,3.6,45,0.00,,---,0.00,VWS V14.01,2013-06-21 20:26:00,
2013-06-21 16:27:00,96.6,71.8,0.00,SSE,164,3.6,3.6,45,0.00,,---,0.00,VWS V14.01,2013-06-21 20:27:00,
2013-06-21 16:30:00,96.8,72.0,0.00,SSE,164,3.6,3.6,45,0.00,,---,0.00,VWS V14.01,2013-06-21 20:30:00,
2013-06-21 16:31:00,96.8,72.0,0.00,SSE,164,3.6,3.6,45,0.00,,---,0.00,VWS V14.01,2013-06-21 20:31:00,
2013-06-21 16:32:00,96.8,72.0,0.00,SSE,164,3.6,3.6,45,0.00,,---,0.00,VWS V14.01,2013-06-21 20:32:00,
2013-06-21 16:35:00,96.8,72.0,0.00,SSE,153,5.8,5.8,45,0.00,,---,0.00,VWS V14.01,2013-06-21 20:35:00,
2013-06-21 16:36:00,96.8,72.0,0.00,SSE,153,5.8,5.8,45,0.00,,---,0.00,VWS V14.01,2013-06-21 20:36:00,
2013-06-21 16:37:00,96.8,71.3,0.00,SSE,153,5.8,5.8,44,0.00,,---,0.00,VWS V14.01,2013-06-21 20:37:00,
2013-06-21 16:40:00,96.8,71.3,0.00,SSE,153,5.8,5.8,44,0.00,,---,0.00,VWS V14.01,2013-06-21 20:40:00,
2013-06-21 16:41:00,96.8,71.3,0.00,SSE,153,5.8,5.8,44,0.00,,---,0.00,VWS V14.01,2013-06-21 20:41:00,
2013-06-21 16:42:00,96.8,71.3,0.00,SSE,153,5.8,5.8,44,0.00,,---,0.00,VWS V14.01,2013-06-21 20:42:00,
2013-06-21 16:47:00,96.4,71.6,0.00,South,172,4.0,4.0,45,0.00,,---,0.00,VWS V14.01,2013-06-21 20:47:00,
2013-06-21 16:48:00,96.4,71.6,0.00,South,172,4.0,4.0,45,0.00,,---,0.00,VWS V14.01,2013-06-21 20:48:00,
2013-06-21 16:49:00,96.4,71.6,0.00,South,172,4.0,4.0,45,0.00,,---,0.00,VWS V14.01,2013-06-21 20:49:00,
2013-06-21 16:50:00,96.4,71.6,0.00,South,172,4.0,4.0,45,0.00,,---,0.00,VWS V14.01,2013-06-21 20:50:00,
2013-06-21 16:52:00,96.3,70.8,0.00,SSW,210,4.0,4.0,44,0.00,,---,0.00,VWS V14.01,2013-06-21 20:52:00,
2013-06-21 16:53:00,96.3,70.8,0.00,SSE,168,2.7,4.0,44,0.00,,---,0.00,VWS V14.01,2013-06-21 20:53:00,
2013-06-21 16:54:00,96.3,70.8,0.00,SSE,168,2.7,2.7,44,0.00,,---,0.00,VWS V14.01,2013-06-21 20:54:00,
2013-06-21 16:55:00,96.3,70.8,0.00,SSE,168,2.7,2.7,44,0.00,,---,0.00,VWS V14.01,2013-06-21 20:55:00,
2013-06-21 16:57:00,96.4,71.6,0.00,SSE,168,2.7,2.7,45,0.00,,---,0.00,VWS V14.01,2013-06-21 20:57:00,
2013-06-21 16:58:00,96.4,71.6,0.00,SSE,168,2.7,2.7,45,0.00,,---,0.00,VWS V14.01,2013-06-21 20:58:00,
2013-06-21 16:59:00,96.4,71.6,0.00,SSE,168,2.7,2.7,45,0.00,,---,0.00,VWS V14.01,2013-06-21 20:59:00,
2013-06-21 17:00:00,96.4,71.6,0.00,SSE,168,2.7,2.7,45,0.00,,---,0.00,VWS V14.01,2013-06-21 21:00:00,
2013-06-21 17:02:00,96.4,71.6,0.00,SSE,168,0.0,0.0,45,0.00,,---,0.00,VWS V14.01,2013-06-21 21:02:00,
2013-06-21 17:03:00,96.4,71.6,0.00,SSE,168,0.0,0.0,45,0.00,,---,0.00,VWS V14.01,2013-06-21 21:03:00,
2013-06-21 17:04:00,96.4,71.6,0.00,SSE,168,0.0,0.0,45,0.00,,---,0.00,VWS V14.01,2013-06-21 21:04:00,
2013-06-21 17:05:00,96.4,70.3,0.00,SSE,168,0.0,0.0,43,0.00,,---,0.00,VWS V14.01,2013-06-21 21:05:00,
2013-06-21 17:07:00,96.4,70.3,0.00,SSE,168,0.0,0.0,43,0.00,,---,0.00,VWS V14.01,2013-06-21 21:07:00,
2013-06-21 17:08:00,96.4,70.3,0.00,SSE,168,0.0,0.0,43,0.00,,---,0.00,VWS V14.01,2013-06-21 21:08:00,
2013-06-21 17:09:00,96.3,70.8,0.00,SSE,168,0.0,0.0,44,0.00,,---,0.00,VWS V14.01,2013-06-21 21:09:00,
2013-06-21 17:11:00,96.3,70.8,0.00,South,183,4.0,4.0,44,0.00,,---,0.00,VWS V14.01,2013-06-21 21:11:00,
2013-06-21 17:12:00,96.3,70.8,0.00,SSW,206,3.1,3.1,44,0.00,,---,0.00,VWS V14.01,2013-06-21 21:12:00,
2013-06-21 17:13:00,96.3,70.8,0.00,SSW,206,3.1,3.1,44,0.00,,---,0.00,VWS V14.01,2013-06-21 21:13:00,
2013-06-21 17:14:00,96.3,70.8,0.00,SSW,206,3.1,3.1,44,0.00,,---,0.00,VWS V14.01,2013-06-21 21:14:00,
2013-06-21 17:16:00,96.3,70.8,0.00,SSW,206,3.1,3.1,44,0.00,,---,0.00,VWS V14.01,2013-06-21 21:16:00,
2013-06-21 17:17:00,96.3,70.8,0.00,SSW,206,3.1,3.1,44,0.00,,---,0.00,VWS V14.01,2013-06-21 21:17:00,
2013-06-21 17:18:00,96.3,70.8,0.00,SSW,206,3.1,3.1,44,0.00,,---,0.00,VWS V14.01,2013-06-21 21:18:00,
2013-06-21 17:19:00,96.3,70.8,0.00,NNW,332,3.6,3.6,44,0.00,,---,0.00,VWS V14.01,2013-06-21 21:19:00,
2013-06-21 17:21:00,96.3,70.8,0.00,South,181,0.0,0.0,44,0.00,,---,0.00,VWS V14.01,2013-06-21 21:21:00,
2013-06-21 17:22:00,96.3,71.5,0.00,South,181,0.0,0.0,45,0.00,,---,0.00,VWS V14.01,2013-06-21 21:22:00,
2013-06-21 17:23:00,96.3,71.5,0.00,South,181,0.0,0.0,45,0.00,,---,0.00,VWS V14.01,2013-06-21 21:23:00,
2013-06-21 17:24:00,96.3,71.5,0.00,South,181,0.0,0.0,45,0.00,,---,0.00,VWS V14.01,2013-06-21 21:24:00,
2013-06-21 17:26:00,96.3,71.5,0.00,South,181,0.0,0.0,45,0.00,,---,0.00,VWS V14.01,2013-06-21 21:26:00,
2013-06-21 17:27:00,96.3,71.5,0.00,South,169,3.6,3.6,45,0.00,,---,0.00,VWS V14.01,2013-06-21 21:27:00,
2013-06-21 17:28:00,96.3,71.5,0.00,South,169,3.6,3.6,45,0.00,,---,0.00,VWS V14.01,2013-06-21 21:28:00,
2013-06-21 17:29:00,96.3,71.5,0.00,South,169,3.6,3.6,45,0.00,,---,0.00,VWS V14.01,2013-06-21 21:29:00,
2013-06-21 17:30:00,96.3,71.5,0.00,South,184,2.7,3.6,45,0.00,,---,0.00,VWS V14.01,2013-06-21 21:30:00,
2013-06-21 17:31:00,96.3,71.5,0.00,South,184,2.7,2.7,45,0.00,,---,0.00,VWS V14.01,2013-06-21 21:31:00,
2013-06-21 17:33:00,96.3,71.5,0.00,South,184,2.7,2.7,45,0.00,,---,0.00,VWS V14.01,2013-06-21 21:33:00,
2013-06-21 17:34:00,96.3,71.5,0.00,South,184,2.7,2.7,45,0.00,,---,0.00,VWS V14.01,2013-06-21 21:34:00,
2013-06-21 17:35:00,95.9,70.5,0.00,South,184,2.7,2.7,44,0.00,,---,0.00,VWS V14.01,2013-06-21 21:35:00,
2013-06-21 17:37:00,95.9,70.5,0.00,SSW,209,2.7,2.7,44,0.00,,---,0.00,VWS V14.01,2013-06-21 21:37:00,
2013-06-21 17:38:00,95.9,70.5,0.00,SSW,209,2.7,2.7,44,0.00,,---,0.00,VWS V14.01,2013-06-21 21:38:00,
2013-06-21 17:39:00,95.9,70.5,0.00,SSW,209,2.7,2.7,44,0.00,,---,0.00,VWS V14.01,2013-06-21 21:39:00,
2013-06-21 17:41:00,95.9,70.5,0.00,SW,236,2.7,2.7,44,0.00,,---,0.00,VWS V14.01,2013-06-21 21:41:00,
2013-06-21 17:42:00,95.9,70.5,0.00,SW,236,2.7,2.7,44,0.00,,---,0.00,VWS V14.01,2013-06-21 21:42:00,
2013-06-21 17:43:00,95.9,70.5,0.00,SW,236,2.7,2.7,44,0.00,,---,0.00,VWS V14.01,2013-06-21 21:43:00,
2013-06-21 17:44:00,95.9,70.5,0.00,SW,236,2.7,2.7,44,0.00,,---,0.00,VWS V14.01,2013-06-21 21:44:00,
2013-06-21 17:47:00,95.9,70.5,0.00,South,172,2.7,2.7,44,0.00,,---,0.00,VWS V14.01,2013-06-21 21:47:00,
2013-06-21 17:48:00,94.8,70.2,0.00,South,172,2.7,2.7,45,0.00,,---,0.00,VWS V14.01,2013-06-21 21:48:00,
2013-06-21 17:49:00,94.8,70.2,0.00,South,170,4.9,4.9,45,0.00,,---,0.00,VWS V14.01,2013-06-21 21:49:00,
2013-06-21 17:52:00,94.8,70.2,0.00,South,170,4.9,4.9,45,0.00,,---,0.00,VWS V14.01,2013-06-21 21:52:00,
2013-06-21 17:53:00,94.8,70.2,0.00,South,170,4.9,4.9,45,0.00,,---,0.00,VWS V14.01,2013-06-21 21:53:00,
2013-06-21 17:54:00,94.8,70.2,0.00,South,170,4.9,4.9,45,0.00,,---,0.00,VWS V14.01,2013-06-21 21:54:00,
2013-06-21 17:57:00,94.8,70.2,0.00,SSW,208,0.0,0.0,45,0.00,,---,0.00,VWS V14.01,2013-06-21 21:57:00,
2013-06-21 17:58:00,94.1,70.2,0.00,SSW,208,0.0,0.0,46,0.00,,---,0.00,VWS V14.01,2013-06-21 21:58:00,
2013-06-21 17:59:00,94.1,70.2,0.00,SSW,202,3.6,3.6,46,0.00,,---,0.00,VWS V14.01,2013-06-21 21:59:00,
2013-06-21 18:02:00,93.7,69.8,0.00,SSW,202,3.6,3.6,46,0.00,,---,0.00,VWS V14.01,2013-06-21 22:02:00,
2013-06-21 18:03:00,93.7,69.8,0.00,SSW,202,3.6,3.6,46,0.00,,---,0.00,VWS V14.01,2013-06-21 22:03:00,
2013-06-21 18:04:00,93.7,69.8,0.00,South,179,3.1,3.6,46,0.00,,---,0.00,VWS V14.01,2013-06-21 22:04:00,
2013-06-21 18:05:00,93.7,69.8,0.00,South,179,3.1,3.6,46,0.00,,---,0.00,VWS V14.01,2013-06-21 22:05:00,
2013-06-21 18:08:00,93.7,69.8,0.00,South,179,3.1,3.1,46,0.00,,---,0.00,VWS V14.01,2013-06-21 22:08:00,
2013-06-21 18:09:00,93.7,69.8,0.00,South,183,4.9,4.9,46,0.00,,---,0.00,VWS V14.01,2013-06-21 22:09:00,
2013-06-21 18:10:00,93.7,69.8,0.00,South,183,4.9,4.9,46,0.00,,---,0.00,VWS V14.01,2013-06-21 22:10:00,
2013-06-21 18:13:00,93.7,69.8,0.00,South,178,4.0,4.9,46,0.00,,---,0.00,VWS V14.01,2013-06-21 22:13:00,
2013-06-21 18:14:00,93.7,69.8,0.00,South,178,4.0,4.0,46,0.00,,---,0.00,VWS V14.01,2013-06-21 22:14:00,
2013-06-21 18:15:00,93.7,69.8,0.00,South,178,4.0,4.0,46,0.00,,---,0.00,VWS V14.01,2013-06-21 22:15:00,
2013-06-21 18:18:00,93.7,69.8,0.00,South,181,3.6,4.0,46,0.00,,---,0.00,VWS V14.01,2013-06-21 22:18:00,
2013-06-21 18:20:00,93.7,69.8,0.00,South,181,3.6,3.6,46,0.00,,---,0.00,VWS V14.01,2013-06-21 22:20:00,
2013-06-21 18:23:00,93.7,69.8,0.00,SSE,165,3.1,3.1,46,0.00,,---,0.00,VWS V14.01,2013-06-21 22:23:00,
2013-06-21 18:25:00,92.3,69.8,0.00,SSE,165,3.1,3.1,48,0.00,,---,0.00,VWS V14.01,2013-06-21 22:25:00,
2013-06-21 18:28:00,92.3,69.8,0.00,SSE,165,3.1,3.1,48,0.00,,---,0.00,VWS V14.01,2013-06-21 22:28:00,
2013-06-21 18:30:00,92.3,69.8,0.00,SSE,165,3.1,3.1,48,0.00,,---,0.00,VWS V14.01,2013-06-21 22:30:00,
2013-06-21 18:33:00,92.3,69.8,0.00,South,169,4.0,4.0,48,0.00,,---,0.00,VWS V14.01,2013-06-21 22:33:00,
2013-06-21 18:35:00,91.8,69.3,0.00,South,169,4.0,4.0,48,0.00,,---,0.00,VWS V14.01,2013-06-21 22:35:00,
2013-06-21 18:36:00,91.8,69.3,0.00,South,169,4.0,4.0,48,0.00,,---,0.00,VWS V14.01,2013-06-21 22:36:00,
2013-06-21 18:38:00,91.8,69.3,0.00,West,276,2.7,2.7,48,0.00,,---,0.00,VWS V14.01,2013-06-21 22:38:00,
2013-06-21 18:40:00,91.8,69.3,0.00,SSE,167,2.7,2.7,48,0.00,,---,0.00,VWS V14.01,2013-06-21 22:40:00,
2013-06-21 18:41:00,91.8,69.3,0.00,SSE,167,2.7,2.7,48,0.00,,---,0.00,VWS V14.01,2013-06-21 22:41:00,
2013-06-21 18:43:00,91.8,69.3,0.00,SSE,167,2.7,2.7,48,0.00,,---,0.00,VWS V14.01,2013-06-21 22:43:00,
2013-06-21 18:45:00,91.8,69.3,0.00,SSE,167,2.7,2.7,48,0.00,,---,0.00,VWS V14.01,2013-06-21 22:45:00,
2013-06-21 18:46:00,91.8,69.3,0.00,SSE,167,2.7,2.7,48,0.00,,---,0.00,VWS V14.01,2013-06-21 22:46:00,
2013-06-21 18:48:00,91.8,69.3,0.00,SSE,159,2.2,2.2,48,0.00,,---,0.00,VWS V14.01,2013-06-21 22:48:00,
2013-06-21 18:49:00,91.8,69.3,0.00,SSE,159,2.2,2.2,48,0.00,,---,0.00,VWS V14.01,2013-06-21 22:49:00,
2013-06-21 18:51:00,90.7,70.1,0.00,SSE,159,2.2,2.2,51,0.00,,---,0.00,VWS V14.01,2013-06-21 22:51:00,
2013-06-21 18:53:00,90.7,70.1,0.00,SSE,159,2.2,2.2,51,0.00,,---,0.00,VWS V14.01,2013-06-21 22:53:00,
2013-06-21 18:54:00,90.7,70.1,0.00,SSE,159,2.2,2.2,51,0.00,,---,0.00,VWS V14.01,2013-06-21 22:54:00,
2013-06-21 18:56:00,90.7,70.1,0.00,SSE,159,2.2,2.2,51,0.00,,---,0.00,VWS V14.01,2013-06-21 22:56:00,
2013-06-21 18:57:00,90.7,70.1,0.00,SSE,156,2.7,2.7,51,0.00,,---,0.00,VWS V14.01,2013-06-21 22:57:00,
2013-06-21 18:59:00,90.7,70.1,0.00,South,181,3.6,3.6,51,0.00,,---,0.00,VWS V14.01,2013-06-21 22:59:00,
2013-06-21 19:01:00,90.7,70.1,0.00,South,181,3.6,3.6,51,0.00,,---,0.00,VWS V14.01,2013-06-21 23:01:00,
2013-06-21 19:02:00,90.7,70.1,0.00,South,181,3.6,3.6,51,0.00,,---,0.00,VWS V14.01,2013-06-21 23:02:00,
2013-06-21 19:04:00,90.7,70.1,0.00,South,181,3.6,3.6,51,0.00,,---,0.00,VWS V14.01,2013-06-21 23:04:00,
2013-06-21 19:06:00,90.7,70.1,0.00,SSE,168,4.0,4.0,51,0.00,,---,0.00,VWS V14.01,2013-06-21 23:06:00,
2013-06-21 19:07:00,90.7,70.1,0.00,SSE,168,4.0,4.0,51,0.00,,---,0.00,VWS V14.01,2013-06-21 23:07:00,
2013-06-21 19:09:00,90.7,70.1,0.00,South,186,3.1,3.1,51,0.00,,---,0.00,VWS V14.01,2013-06-21 23:09:00,
2013-06-21 19:11:00,90.7,70.1,0.00,South,186,3.1,3.1,51,0.00,,---,0.00,VWS V14.01,2013-06-21 23:11:00,
2013-06-21 19:12:00,90.7,70.1,0.00,South,186,3.1,3.1,51,0.00,,---,0.00,VWS V14.01,2013-06-21 23:12:00,
2013-06-21 19:14:00,90.7,70.1,0.00,South,186,3.1,3.1,51,0.00,,---,0.00,VWS V14.01,2013-06-21 23:14:00,
2013-06-21 19:17:00,90.7,70.1,0.00,WNW,296,3.6,3.6,51,0.00,,---,0.00,VWS V14.01,2013-06-21 23:17:00,
2013-06-21 19:19:00,88.9,69.6,0.00,North,0,3.1,3.1,53,0.00,,---,0.00,VWS V14.01,2013-06-21 23:19:00,
2013-06-21 19:22:00,88.7,69.9,0.00,North,0,3.1,3.1,54,0.00,,---,0.00,VWS V14.01,2013-06-21 23:22:00,
2013-06-21 19:24:00,88.7,69.9,0.00,North,0,3.1,3.1,54,0.00,,---,0.00,VWS V14.01,2013-06-21 23:24:00,
2013-06-21 19:27:00,88.7,69.9,0.00,SW,232,2.7,3.1,54,0.00,,---,0.00,VWS V14.01,2013-06-21 23:27:00,
2013-06-21 19:28:00,88.7,69.9,0.00,SW,232,2.7,2.7,54,0.00,,---,0.00,VWS V14.01,2013-06-21 23:28:00,
2013-06-21 19:29:00,88.7,69.9,0.00,SW,232,2.7,2.7,54,0.00,,---,0.00,VWS V14.01,2013-06-21 23:29:00,
2013-06-21 19:32:00,88.7,69.9,0.00,SW,232,2.7,2.7,54,0.00,,---,0.00,VWS V14.01,2013-06-21 23:32:00,
2013-06-21 19:33:00,88.7,69.9,0.00,SW,232,2.7,2.7,54,0.00,,---,0.00,VWS V14.01,2013-06-21 23:33:00,
2013-06-21 19:34:00,88.7,69.9,0.00,SW,232,2.7,2.7,54,0.00,,---,0.00,VWS V14.01,2013-06-21 23:34:00,
2013-06-21 19:37:00,88.7,69.9,0.00,SW,215,2.2,2.2,54,0.00,,---,0.00,VWS V14.01,2013-06-21 23:37:00,
2013-06-21 19:38:00,88.7,69.9,0.00,SW,215,2.2,2.2,54,0.00,,---,0.00,VWS V14.01,2013-06-21 23:38:00,
2013-06-21 19:39:00,88.7,69.9,0.00,SW,215,2.2,2.2,54,0.00,,---,0.00,VWS V14.01,2013-06-21 23:39:00,
2013-06-21 19:40:00,88.7,69.9,0.00,SW,215,2.2,2.2,54,0.00,,---,0.00,VWS V14.01,2013-06-21 23:40:00,
2013-06-21 19:42:00,88.7,69.9,0.00,SW,215,2.2,2.2,54,0.00,,---,0.00,VWS V14.01,2013-06-21 23:42:00,
2013-06-21 19:43:00,88.7,69.9,0.00,SW,215,2.2,2.2,54,0.00,,---,0.00,VWS V14.01,2013-06-21 23:43:00,
2013-06-21 19:45:00,88.7,69.9,0.00,South,181,3.1,3.1,54,0.00,,---,0.00,VWS V14.01,2013-06-21 23:45:00,
2013-06-21 19:47:00,88.7,69.9,0.00,South,181,3.1,3.1,54,0.00,,---,0.00,VWS V14.01,2013-06-21 23:47:00,
2013-06-21 19:48:00,88.7,69.9,0.00,South,181,3.1,3.1,54,0.00,,---,0.00,VWS V14.01,2013-06-21 23:48:00,
2013-06-21 19:50:00,88.7,69.9,0.00,South,181,3.1,3.1,54,0.00,,---,0.00,VWS V14.01,2013-06-21 23:50:00,
2013-06-21 19:52:00,88.7,69.9,0.00,South,181,3.1,3.1,54,0.00,,---,0.00,VWS V14.01,2013-06-21 23:52:00,
2013-06-21 19:53:00,88.7,69.9,0.00,SSE,158,2.7,3.1,54,0.00,,---,0.00,VWS V14.01,2013-06-21 23:53:00,
2013-06-21 19:55:00,88.7,69.9,0.00,South,174,0.0,0.0,54,0.00,,---,0.00,VWS V14.01,2013-06-21 23:55:00,
2013-06-21 19:56:00,88.7,69.9,0.00,South,174,0.0,0.0,54,0.00,,---,0.00,VWS V14.01,2013-06-21 23:56:00,
2013-06-21 19:57:00,86.5,71.0,0.00,South,174,0.0,0.0,60,0.00,,---,0.00,VWS V14.01,2013-06-21 23:57:00,
2013-06-21 19:58:00,86.5,71.0,0.00,South,174,0.0,0.0,60,0.00,,---,0.00,VWS V14.01,2013-06-21 23:58:00,
2013-06-21 20:00:00,86.5,71.0,0.00,South,174,0.0,0.0,60,0.00,,---,0.00,VWS V14.01,2013-06-22 00:00:00,
2013-06-21 20:01:00,86.5,71.0,0.00,South,174,0.0,0.0,60,0.00,,---,0.00,VWS V14.01,2013-06-22 00:01:00,
2013-06-21 20:02:00,86.5,71.0,0.00,South,174,0.0,0.0,60,0.00,,---,0.00,VWS V14.01,2013-06-22 00:02:00,
2013-06-21 20:03:00,86.5,71.0,0.00,SSW,192,0.0,0.0,60,0.00,,---,0.00,VWS V14.01,2013-06-22 00:03:00,
2013-06-21 20:05:00,86.5,71.0,0.00,South,185,3.6,3.6,60,0.00,,---,0.00,VWS V14.01,2013-06-22 00:05:00,
2013-06-21 20:06:00,86.5,71.0,0.00,South,185,3.6,3.6,60,0.00,,---,0.00,VWS V14.01,2013-06-22 00:06:00,
2013-06-21 20:07:00,86.5,71.0,0.00,South,185,3.6,3.6,60,0.00,,---,0.00,VWS V14.01,2013-06-22 00:07:00,
2013-06-21 20:08:00,86.5,71.0,0.00,South,185,3.6,3.6,60,0.00,,---,0.00,VWS V14.01,2013-06-22 00:08:00,
2013-06-21 20:10:00,86.5,71.0,0.00,South,185,3.6,3.6,60,0.00,,---,0.00,VWS V14.01,2013-06-22 00:10:00,
2013-06-21 20:11:00,86.0,71.0,0.00,South,185,3.6,3.6,61,0.00,,---,0.00,VWS V14.01,2013-06-22 00:11:00,
2013-06-21 20:12:00,86.0,71.0,0.00,South,180,2.2,2.2,61,0.00,,---,0.00,VWS V14.01,2013-06-22 00:12:00,
2013-06-21 20:13:00,86.0,71.0,0.00,South,180,0.0,2.2,61,0.00,,---,0.00,VWS V14.01,2013-06-22 00:13:00,
2013-06-21 20:16:00,85.8,70.8,0.00,South,180,0.0,0.0,61,0.00,,---,0.00,VWS V14.01,2013-06-22 00:16:00,
2013-06-21 20:17:00,85.8,70.8,0.00,South,180,0.0,0.0,61,0.00,,---,0.00,VWS V14.01,2013-06-22 00:17:00,
2013-06-21 20:18:00,85.8,70.8,0.00,South,180,0.0,0.0,61,0.00,,---,0.00,VWS V14.01,2013-06-22 00:18:00,
2013-06-21 20:20:00,85.8,70.8,0.00,South,180,0.0,0.0,61,0.00,,---,0.00,VWS V14.01,2013-06-22 00:20:00,
2013-06-21 20:21:00,85.8,70.8,0.00,South,175,0.0,0.0,61,0.00,,---,0.00,VWS V14.01,2013-06-22 00:21:00,
2013-06-21 20:22:00,85.8,70.8,0.00,South,173,2.2,2.2,61,0.00,,---,0.00,VWS V14.01,2013-06-22 00:22:00,
2013-06-21 20:24:00,85.8,70.8,0.00,South,173,2.2,2.2,61,0.00,,---,0.00,VWS V14.01,2013-06-22 00:24:00,
2013-06-21 20:25:00,85.8,70.8,0.00,South,173,2.2,2.2,61,0.00,,---,0.00,VWS V14.01,2013-06-22 00:25:00,
2013-06-21 20:26:00,85.8,70.8,0.00,South,173,2.2,2.2,61,0.00,,---,0.00,VWS V14.01,2013-06-22 00:26:00,
2013-06-21 20:28:00,85.8,70.8,0.00,South,173,2.2,2.2,61,0.00,,---,0.00,VWS V14.01,2013-06-22 00:28:00,
2013-06-21 20:29:00,85.8,70.8,0.00,South,173,2.2,2.2,61,0.00,,---,0.00,VWS V14.01,2013-06-22 00:29:00,
2013-06-21 20:30:00,85.8,70.8,0.00,South,183,0.0,0.0,61,0.00,,---,0.00,VWS V14.01,2013-06-22 00:30:00,
2013-06-21 20:31:00,85.8,70.8,0.00,South,183,0.0,0.0,61,0.00,,---,0.00,VWS V14.01,2013-06-22 00:31:00,
2013-06-21 20:33:00,85.8,70.8,0.00,South,183,2.2,2.2,61,0.00,,---,0.00,VWS V14.01,2013-06-22 00:33:00,
2013-06-21 20:34:00,85.8,70.8,0.00,South,183,2.2,2.2,61,0.00,,---,0.00,VWS V14.01,2013-06-22 00:34:00,
2013-06-21 20:35:00,85.8,70.8,0.00,South,183,2.2,2.2,61,0.00,,---,0.00,VWS V14.01,2013-06-22 00:35:00,
2013-06-21 20:36:00,85.8,70.8,0.00,South,183,2.2,2.2,61,0.00,,---,0.00,VWS V14.01,2013-06-22 00:36:00,
2013-06-21 20:38:00,85.1,70.6,0.00,South,183,2.2,2.2,62,0.00,,---,0.00,VWS V14.01,2013-06-22 00:38:00,
2013-06-21 20:39:00,85.1,70.6,0.00,South,183,0.0,0.0,62,0.00,,---,0.00,VWS V14.01,2013-06-22 00:39:00,
2013-06-21 20:41:00,85.1,70.6,0.00,South,183,0.0,0.0,62,0.00,,---,0.00,VWS V14.01,2013-06-22 00:41:00,
2013-06-21 20:43:00,85.1,70.6,0.00,South,183,0.0,0.0,62,0.00,,---,0.00,VWS V14.01,2013-06-22 00:43:00,
2013-06-21 20:44:00,85.1,70.6,0.00,South,183,0.0,0.0,62,0.00,,---,0.00,VWS V14.01,2013-06-22 00:44:00,
2013-06-21 20:46:00,85.1,70.6,0.00,South,183,0.0,0.0,62,0.00,,---,0.00,VWS V14.01,2013-06-22 00:46:00,
2013-06-21 20:47:00,85.1,70.6,0.00,South,183,0.0,0.0,62,0.00,,---,0.00,VWS V14.01,2013-06-22 00:47:00,
2013-06-21 20:48:00,85.1,70.6,0.00,South,183,0.0,0.0,62,0.00,,---,0.00,VWS V14.01,2013-06-22 00:48:00,
2013-06-21 20:49:00,85.1,70.6,0.00,South,183,0.0,0.0,62,0.00,,---,0.00,VWS V14.01,2013-06-22 00:49:00,
2013-06-21 20:51:00,85.1,70.6,0.00,South,183,0.0,0.0,62,0.00,,---,0.00,VWS V14.01,2013-06-22 00:51:00,
2013-06-21 20:52:00,85.1,70.6,0.00,South,183,0.0,0.0,62,0.00,,---,0.00,VWS V14.01,2013-06-22 00:52:00,
2013-06-21 20:53:00,85.1,70.6,0.00,South,183,0.0,0.0,62,0.00,,---,0.00,VWS V14.01,2013-06-22 00:53:00,
2013-06-21 20:54:00,85.1,70.6,0.00,South,183,0.0,0.0,62,0.00,,---,0.00,VWS V14.01,2013-06-22 00:54:00,
2013-06-21 20:56:00,85.1,70.6,0.00,South,183,0.0,0.0,62,0.00,,---,0.00,VWS V14.01,2013-06-22 00:56:00,
2013-06-21 20:58:00,85.1,70.6,0.00,SSE,166,3.6,3.6,62,0.00,,---,0.00,VWS V14.01,2013-06-22 00:58:00,
2013-06-21 20:59:00,85.1,70.6,0.00,SSE,166,3.6,3.6,62,0.00,,---,0.00,VWS V14.01,2013-06-22 00:59:00,
2013-06-21 21:01:00,85.1,70.6,0.00,SSE,166,2.2,2.2,62,0.00,,---,0.00,VWS V14.01,2013-06-22 01:01:00,
2013-06-21 21:03:00,85.1,70.6,0.00,SSE,166,2.2,2.2,62,0.00,,---,0.00,VWS V14.01,2013-06-22 01:03:00,
2013-06-21 21:05:00,84.4,70.4,0.00,SSE,166,2.2,2.2,63,0.00,,---,0.00,VWS V14.01,2013-06-22 01:05:00,
2013-06-21 21:06:00,84.4,70.4,0.00,SSE,166,2.2,2.2,63,0.00,,---,0.00,VWS V14.01,2013-06-22 01:06:00,
2013-06-21 21:07:00,84.4,70.4,0.00,SSE,166,2.2,2.2,63,0.00,,---,0.00,VWS V14.01,2013-06-22 01:07:00,
2013-06-21 21:08:00,84.4,70.4,0.00,SSE,166,2.2,2.2,63,0.00,,---,0.00,VWS V14.01,2013-06-22 01:08:00,
2013-06-21 21:10:00,84.4,70.4,0.00,SSE,166,2.2,2.2,63,0.00,,---,0.00,VWS V14.01,2013-06-22 01:10:00,
2013-06-21 21:11:00,84.4,70.4,0.00,South,186,0.0,0.0,63,0.00,,---,0.00,VWS V14.01,2013-06-22 01:11:00,
2013-06-21 21:12:00,84.4,70.4,0.00,South,186,0.0,0.0,63,0.00,,---,0.00,VWS V14.01,2013-06-22 01:12:00,
2013-06-21 21:13:00,84.4,70.4,0.00,South,186,0.0,0.0,63,0.00,,---,0.00,VWS V14.01,2013-06-22 01:13:00,
2013-06-21 21:14:00,84.4,70.4,0.00,South,186,0.0,0.0,63,0.00,,---,0.00,VWS V14.01,2013-06-22 01:14:00,
2013-06-21 21:15:00,84.4,70.4,0.00,South,186,0.0,0.0,63,0.00,,---,0.00,VWS V14.01,2013-06-22 01:15:00,
2013-06-21 21:17:00,84.4,70.4,0.00,South,186,0.0,0.0,63,0.00,,---,0.00,VWS V14.01,2013-06-22 01:17:00,
2013-06-21 21:19:00,84.4,70.4,0.00,South,186,0.0,0.0,63,0.00,,---,0.00,VWS V14.01,2013-06-22 01:19:00,
2013-06-21 21:20:00,84.4,70.4,0.00,North,4,0.0,0.0,63,0.00,,---,0.00,VWS V14.01,2013-06-22 01:20:00,
2013-06-21 21:22:00,84.4,70.4,0.00,North,4,0.0,0.0,63,0.00,,---,0.00,VWS V14.01,2013-06-22 01:22:00,
2013-06-21 21:23:00,84.4,70.4,0.00,North,4,0.0,0.0,63,0.00,,---,0.00,VWS V14.01,2013-06-22 01:23:00,
2013-06-21 21:24:00,84.4,70.4,0.00,North,4,0.0,0.0,63,0.00,,---,0.00,VWS V14.01,2013-06-22 01:24:00,
2013-06-21 21:25:00,84.4,70.4,0.00,North,4,0.0,0.0,63,0.00,,---,0.00,VWS V14.01,2013-06-22 01:25:00,
2013-06-21 21:27:00,84.4,70.4,0.00,North,4,0.0,0.0,63,0.00,,---,0.00,VWS V14.01,2013-06-22 01:27:00,
2013-06-21 21:28:00,84.4,70.4,0.00,North,4,0.0,0.0,63,0.00,,---,0.00,VWS V14.01,2013-06-22 01:28:00,
2013-06-21 21:29:00,84.4,70.4,0.00,North,4,0.0,0.0,63,0.00,,---,0.00,VWS V14.01,2013-06-22 01:29:00,
2013-06-21 21:30:00,84.4,70.4,0.00,North,4,0.0,0.0,63,0.00,,---,0.00,VWS V14.01,2013-06-22 01:30:00,
2013-06-21 21:32:00,84.0,71.0,0.00,North,4,0.0,0.0,65,0.00,,---,0.00,VWS V14.01,2013-06-22 01:32:00,
2013-06-21 21:33:00,84.0,71.0,0.00,North,4,2.2,2.2,65,0.00,,---,0.00,VWS V14.01,2013-06-22 01:33:00,
2013-06-21 21:34:00,84.0,71.0,0.00,North,4,2.7,2.7,65,0.00,,---,0.00,VWS V14.01,2013-06-22 01:34:00,
2013-06-21 21:35:00,84.0,71.0,0.00,North,4,2.7,2.7,65,0.00,,---,0.00,VWS V14.01,2013-06-22 01:35:00,